Simultaneous Nadir Overpasses (SNOs) Predictions

Prediction of SNOs near equator between AQUA and NPP Satellite Orbit:

Table of predicted SNOs near equator for the next 14.0 days since TLE Epoch: 12/20/2014
Index Date (AQUA) Time (AQUA) AQUA Lat,Lon Date (NPP) Time (NPP) NPP Lat,Lon Distance(km) Time Diff (sec)
1 12/20/2014 20:58:33 -29.95, 64.56 12/20/2014 20:51:17 -30.12, 65.27 71.37 436
2 12/20/2014 21:48:04 29.99,-127.83 12/20/2014 21:42:05 30.08,-127.42 40.74 359
3 12/20/2014 22:37:26 -29.94, 39.84 12/20/2014 22:32:44 -29.96, 39.95 10.21 282
4 12/20/2014 23:21:36 10.63,-148.00 12/20/2014 23:18:03 10.63,-147.99 0.27 213
5 12/21/2014 00:02:16 20.91, 26.53 12/20/2014 23:59:47 20.91, 26.53 0.28 149
6 12/21/2014 00:50:30 -25.53,-164.74 12/21/2014 00:49:16 -25.58,-165.00 26.32 74
7 12/21/2014 01:38:40 29.89, 4.02 12/21/2014 01:38:42 29.98, 3.50 50.93 2
8 12/21/2014 02:28:10 -29.92, 171.65 12/21/2014 02:29:29 -30.06, 170.82 81.36 79
9 12/23/2014 12:25:43 30.00, 12.76 12/23/2014 12:17:28 30.18, 13.70 92.72 495
10 12/23/2014 13:15:05 -29.95,-179.57 12/23/2014 13:08:07 -30.05,-178.93 62.31 418
11 12/23/2014 14:04:36 29.99, -11.95 12/23/2014 13:58:56 30.07, -11.64 31.69 340
12 12/23/2014 14:53:59 -30.00, 155.70 12/23/2014 14:49:36 -30.01, 155.71 1.33 263
13 12/23/2014 15:35:39 1.68, -30.21 12/23/2014 15:32:21 1.68, -30.21 0.45 198
14 12/23/2014 16:18:28 22.06, 142.67 12/23/2014 16:16:17 22.09, 142.60 8.53 131
15 12/23/2014 17:06:43 -26.61, -48.60 12/23/2014 17:05:47 -26.70, -48.93 34.33 56
16 12/23/2014 17:55:11 29.89, 119.89 12/23/2014 17:55:31 30.05, 119.29 60.12 20
17 12/23/2014 18:44:41 -29.92, -72.48 12/23/2014 18:46:18 -30.13, -73.38 90.50 97
18 12/26/2014 04:42:12 29.96, 128.65 12/26/2014 04:34:17 30.12, 129.49 83.19 475
19 12/26/2014 05:31:35 -29.96, -63.70 12/26/2014 05:24:57 -30.05, -63.16 52.66 398
20 12/26/2014 06:21:05 29.95, 103.93 12/26/2014 06:15:45 30.02, 104.15 22.15 320
21 12/26/2014 07:08:34 -23.11, -86.70 12/26/2014 07:04:28 -23.11, -86.71 0.89 246
22 12/26/2014 07:49:31 -7.90, 87.72 12/26/2014 07:46:29 -7.90, 87.71 1.18 182
23 12/26/2014 08:34:38 23.30,-101.16 12/26/2014 08:32:47 23.32,-101.32 17.06 111
24 12/26/2014 09:22:54 -27.79, 67.57 12/26/2014 09:22:18 -27.87, 67.15 42.37 36
25 12/26/2014 10:11:41 29.93,-124.22 12/26/2014 10:12:21 30.10,-124.92 69.71 40
26 12/28/2014 20:58:41 29.94,-115.46 12/28/2014 20:51:07 30.08,-114.72 73.14 454
27 12/28/2014 21:48:04 -29.95, 52.19 12/28/2014 21:41:48 -30.07, 52.61 42.64 376
28 12/28/2014 22:37:34 29.94,-140.18 12/28/2014 22:32:35 29.97,-140.06 11.91 299
29 12/28/2014 23:22:18 -13.16, 31.46 12/28/2014 23:18:29 -13.16, 31.45 0.72 229
30 12/29/2014 00:02:41 -19.91,-153.73 12/28/2014 23:59:55 -19.91,-153.72 1.10 166
31 12/29/2014 00:50:46 24.57, 15.03 12/29/2014 00:49:16 24.60, 14.78 26.21 90
32 12/29/2014 01:39:02 -29.05,-176.22 12/29/2014 01:38:47 -29.14,-176.73 50.63 15
33 12/29/2014 02:28:10 29.93, -8.34 12/29/2014 02:29:12 30.09, -9.15 79.78 62
34 12/31/2014 12:25:39 -29.97,-167.20 12/31/2014 12:17:10 -30.14,-166.26 93.13 509
35 12/31/2014 13:15:09 29.96, 0.42 12/31/2014 13:07:58 30.10, 1.05 62.46 431
36 12/31/2014 14:04:32 -29.96, 168.08 12/31/2014 13:58:38 -30.03, 168.40 31.90 354
37 12/31/2014 14:53:52 29.36, -24.14 12/31/2014 14:49:15 29.35, -24.12 2.16 277
38 12/31/2014 15:35:15 -0.44, 150.09 12/31/2014 15:31:43 -0.44, 150.10 1.18 212
39 12/31/2014 16:18:45 -21.34, -37.51 12/31/2014 16:16:21 -21.35, -37.59 8.86 144
40 12/31/2014 17:06:52 25.88, 131.24 12/31/2014 17:05:44 25.92, 130.89 35.44 68
41 12/31/2014 17:55:15 -29.93, -60.10 12/31/2014 17:55:22 -30.05, -60.71 59.73 7
42 12/31/2014 18:44:38 29.91, 107.55 12/31/2014 18:46:02 30.12, 106.64 90.47 84




NCC Satellite Simultaneous Nadir Overpasses (SNOs) Prediction Service
